Preview of NWS' New Version of Forecast
This preview is not operational and should not be used for support decisions.

Regional Weather Roundup (RWR)

Issued by National Weather Service (NWS)

                            
000
ASUS43 KMKX 181259
RWRWI 

WISCONSIN REGIONAL WEATHER ROUNDUP
NATIONAL WEATHER SERVICE MILWAUKEE/SULLIVAN WI
700 AM CST MON FEB 18 2019

NOTE: "FAIR" INDICATES FEW OR NO CLOUDS BELOW 12,000 FEET WITH NO
SIGNIFICANT WEATHER AND/OR OBSTRUCTIONS TO VISIBILITY.

WIZ001-002-006>008-014>016-023>028-181400-
NORTHWEST WISCONSIN
  
CITY           SKY/WX    TMP DP  RH WIND       PRES   REMARKS
SUPERIOR ARPT  CLOUDY     3  -1  81 CALM      30.40R                  
ASHLAND        CLOUDY     6   1  80 N6        30.37R WCI  -4          
HAYWARD        FAIR     -10 -15  78 CALM      30.32R                  
SIREN          FAIR     -11 -17  77 CALM      30.35R                  
CUMBERLAND     FAIR       3   0  85 NE5       30.30R WCI  -6          
RICE LAKE      FAIR       0  -3  88 N5        30.32R WCI -10          
CHETEK         FAIR      -3  -6  87 N3        30.32R                  
LADYSMITH      FAIR       1  -2  85 N6        30.31R WCI -10          
EAU CLAIRE     NOT AVBL                                               
MENOMONIE      FAIR       0  -4  85 CALM      30.33R                  
NEW RICHMOND   FAIR      -4  -9  80 CALM      30.34R                  
OSCEOLA        FAIR      -9 -13  83 CALM      30.39R                  
$$
 
WIZ003>005-009-010-017-018-181400-
NORTH CENTRAL WISCONSIN
  
CITY           SKY/WX    TMP DP  RH WIND       PRES   REMARKS
MANITOWISH WTR NOT AVBL                                               
ARBOR VITAE    CLOUDY     9   6  87 N3        30.24R                  
WOODRUFF       CLOUDY     9   6  87 N3        30.24R                  
RHINELANDER    FAIR       1  -4  79 N3        30.23R                  
EAGLE RIVER    CLOUDY     4  -1  82 N8        30.21S WCI -10          
LAND O LAKES   FAIR       3  -1  85 N7        30.25R WCI  -9          
PHILLIPS       FAIR      -9 -12  85 CALM      30.25R                  
TOMAHAWK       FAIR      -4  -6  89 CALM      30.25R                  
MEDFORD        FAIR       1  -2  87 NE5       30.24R WCI  -9          
MERRILL        FAIR       3   0  88 CALM      30.25R                  
$$
 
WIZ029-030-035-036-043>047-181400-
CENTRAL WISCONSIN
  
CITY           SKY/WX    TMP DP  RH WIND       PRES   REMARKS
WAUSAU         FAIR       5   0  79 N6        30.24R WCI  -6          
MOSINEE        PTCLDY     7   3  85 N14       30.24R WCI -10          
MARSHFIELD     FAIR       7   2  80 N8        30.23R WCI  -6          
STEVENS POINT  FAIR       7   3  85 N7        30.25R WCI  -5          
WAUPACA        FAIR      12   6  76 N6        30.25R WCI   3          
WAUTOMA        FAIR       8   5  87 NW6         N/A  WCI  -2          
WISC RAPIDS    FAIR       9   1  70 N10       30.26R WCI  -5          
CAMP DOUGLAS   CLOUDY     5   4  93 W8        30.26R WCI  -8          
$$
 
WIZ011>013-019>022-031-037>040-048>050-181400-
NORTHEAST WISCONSIN
  
CITY           SKY/WX    TMP DP  RH WIND       PRES   REMARKS
ANTIGO         FLURRIES  -1  -4  87 N9        30.22R WCI -16          
SHAWANO        FAIR      13   7  76 N3        30.25R                  
OCONTO         CLOUDY    12   7  80 N7        30.25R WCI   1          
STURGEON BAY   FAIR      11   8  88 N12       30.22R WCI  -3          
GREEN BAY      FAIR      14   6  70 N10       30.24R WCI   1          
MANITOWOC      CLOUDY    13   9  84 N14       30.22R WCI  -2          
APPLETON       PTCLDY    10   3  72 N9        30.20R WCI  -2          
CLINTONVILLE   FAIR      12   5  74 N7        30.24R WCI   1          
OSHKOSH        FAIR      11   7  84 N8        30.23R WCI  -1          
$$
 
WIZ032>034-041-042-053>061-181400-
SOUTHWEST WISCONSIN
  
CITY           SKY/WX    TMP DP  RH WIND       PRES   REMARKS
LA CROSSE      CLOUDY     9   4  80 NW9       30.31R WCI  -4          
SPARTA         LGT SNOW   5   2  91 CALM      30.28R                  
VIROQUA        FAIR       6   5  95 N5        30.23R WCI  -3          
BOSCOBEL       FAIR       9   6  88 CALM      30.28R                  
PRAIRIE DU CHI FAIR      13  11  90 CALM      30.29R                  
PLATTEVILLE    FAIR      17  16  96 N7        30.22R WCI   7          
$$

WIZ056-057-062-063-064-067-068-181400-
SOUTH CENTRAL WISCONSIN
  
CITY           SKY/WX    TMP DP  RH WIND       PRES   REMARKS
REEDSBURG      FAIR      11   8  87 CALM      30.25R                  
BARABOO/DELLS  FAIR      11   8  89 N3        30.24R                  
LONE ROCK      FAIR      15  11  83 N5        30.27R WCI   8          
MINERAL POINT  FAIR      18  18 100 NW7       30.21R WCI   8          
MADISON        MOCLDY    15  11  83 N8        30.22R WCI   4          
MIDDLETON      CLOUDY    16  13  89 N7        30.22R WCI   6          
WATERTOWN      CLOUDY    15  12  90 N7        30.21R WCI   5          
MONROE         FAIR      16  13  87 MISG      30.20R                  
JANESVILLE     MOCLDY    18  14  86 N9        30.20R WCI   6          
$$
 
WIZ051-052-058>065-066-070>072-181400-
SOUTHEAST WISCONSIN
  
CITY           SKY/WX    TMP DP  RH WIND       PRES   REMARKS
MILWAUKEE      FAIR      19  14  81 NW10      30.18R WCI   7          
WAUKESHA       CLOUDY    16  10  79 NW8       30.19R WCI   5          
MILWAUKEE/TIMM CLOUDY    18  12  79 N10       30.21R WCI   6          
RACINE         LGT SNOW  21  17  84 N12       30.19R FOG     WCI   9  
KENOSHA        LGT SNOW  21  18  88 N9        30.17R FOG     WCI  11  
FOND DU LAC    FAIR      10   7  87 NW7       30.22R WCI  -1          
SHEBOYGAN      MIX PCPN  13   8  81 N10       30.20R WCI   0          
WEST BEND      FLURRIES  14  12  92 N7        30.19R WCI   4          
JUNEAU         FAIR      13  10  85 N9G16     30.20R WCI   1          
$$

LSZ147-162-181400-
LAKE SUPERIOR
  
STATION/POSITION TIME  TEMP    WIND        PRES    WAVE
                       AIR SEA DIR/SP/G            HT/PER
                 (UTC) (F)     (DEG/KT/KT) (MB)    (FT/S)
DEVILS ISLAND    1200    9      50/  8/  9 1030.0R
SAXON HARBOR     1230   11      40/  5/  9 1027.4S
$$
 
LMZ867-665-643>646-181400-
LAKE MICHIGAN
  
STATION/POSITION TIME  TEMP    WIND        PRES    WAVE
                       AIR SEA DIR/SP/G            HT/PER
                 (UTC) (F)     (DEG/KT/KT) (MB)    (FT/S)
CHAMBERS ISLAND  1240   10     310/  7/ 10 1023.0R
NORTHPORT PIER   1240   13     340/  7/  8 1023.7R
KEWAUNEE LAKESHO 1230   14     330/ 10/ 14 1021.8R
SHEBOYGAN LAKESH 1200   17     330/ 11/ 13 1023.0R
PORT WASHINGTON  1240   17     320/  7/ 12 1023.7R
KENOSHA   LAKESH 1200   23     340/ 11/ 12 1020.3
$$

TC  - TEMPERATURE IN CELSIUS
VSB - VISIBILITY IN STATUTE MILES
WCI - WIND CHILL INDEX
HX  - HEAT INDEX